User: anonymous   Login
Location: Unspecified
(0.0000°N, 0.0000°E)
Time: 13:48:42
(UTC+00:00)
Language:

OBJECT A - Orbit

View from above orbital plane
View from above orbital plane
View from above satellite
View from above satellite

Ground track
Ground track

The orbit data is extracted from the following two-line orbital elements,

1 41783U 16059A   17114.94468062 +.00000196 +00000-0 +47701-4 0  9996
2 41783 098.1720 176.8539 0032846 329.8013 030.1294 14.62825477030817
Epoch (UTC): 24 April 2017 22:40:20
Eccentricity: 0.0032846
inclination: 98.1720°
perigee height: 661 km
apogee height: 707 km
right ascension of ascending node: 176.8539°
argument of perigee: 329.8013°
revolutions per day: 14.62825477
mean anomaly at epoch: 30.1294°
orbit number at epoch: 3081

The dashed part of the orbit path shows where the satellite is in the earth's shadow,  

DLR